Tracking 31027 objects as of 19-Jul-2025
HD Live streaming from Space Station
objects crossing your sky now

ARIANE 2 DEB

Track ARIANE 2 DEB now!


NORAD ID: 27039
Int'l Code: 1989-006U
Perigee: 576.8 km
Apogee: 35,706.3 km
Inclination: 8.2 °
Period: 636.6 minutes
Semi major axis: 24512 km
RCS: 0.3487 m2 (medium)
Launch date: January 27, 1989
Source: France (FR)
Launch site: FRENCH GUIANA (FRGUI)

Note: This is SATELLITE DEBRIS
Your satellite tracking list
FLOCK 4Q 34
Track 1 satellite(s)




NASA's NSSDC Master Catalog

Two Line Element Set (TLE):
1 27039U 89006U   25199.46601112 -.00000095  00000-0  17361-3 0  9997
2 27039   8.1789 286.6750 7165623  26.6448   6.5190  2.26214222198608
Source of the keplerian elements: AFSPC